User: anonymous
Location: Albany
(35.0000°S, 118.0000°E)
Time: 01:58:50
(UTC-04:00)
Language:

ERS-1 Rocket - Orbit

View from above orbital plane
View from above orbital plane
View from above satellite
View from above satellite

Ground track
Ground track

The orbit data is extracted from the following two-line orbital elements,

1 21610U 91050F   14273.15783260  .00000541  00000-0  18528-3 0  6156
2 21610 098.7358 300.0964 0003411 039.7595 002.3146 14.40348299217427
Epoch (UTC): 30 September 2014 03:47:16
Eccentricity: 0.0003411
inclination: 98.7358°
perigee height: 755 km
apogee height: 760 km
right ascension of ascending node: 300.0964°
argument of perigee: 39.7595°
revolutions per day: 14.40348299
mean anomaly at epoch: 2.3146°
orbit number at epoch: 21742

The dashed part of the orbit path shows where the satellite is in the earth's shadow,  

DLR